Weather History for KBDL - August, 2014

Change the Weather History Date:

Tuesday, August 12, 2014

  Actual Average Record
Temperature  
Mean Temperature 72 °F 73 °F  
Max Temperature 84 °F 84 °F 98 °F (1944)
Min Temperature 60 °F 62 °F 47 °F (1968)
Degree Days  
Heating Degree Days 0 0  
Month to date heating degree days 0 0  
Since 1 June heating degree days 6 43  
Since 1 July heating degree days 0 3  
Cooling Degree Days 7 8  
Month to date cooling degree days 83 99  
Year to date cooling degree days 567 551  
Since 1 June cooling degree days 535 512  
Growing Degree Days 22 (Base 50)    
Moisture  
Dew Point 62 °F    
Average Humidity 68    
Maximum Humidity 93    
Minimum Humidity 42    
Precipitation  
Precipitation T in 0.12 in 2.08 in (1955)
Month to date precipitation 0.97 1.72  
Year to date precipitation 29.18 28.06  
Snow  
Snow 0.00 in 0.00 in 0.00 in (2002)
Month to date snowfall 0.0 0.0  
Since 1 June snowfall 0.0 0.0  
Since 1 July snowfall 0.0 0.0  
Snow Depth 0.00 in    
Sea Level Pressure  
Sea Level Pressure 30.05 in    
Wind  
Wind Speed 9 mph (SSE)    
Max Wind Speed 20 mph    
Max Gust Speed 25 mph    
Visibility 10 miles    
Events      
T = Trace of Precipitation, MM = Missing Value Source: NWS Daily Summary

Daily Weather History Graph

Daily Weather History Graph

Search for Another Location

Airport or City:

Trip Planner

Search our weather history database for the weather conditions in past years. The results will help you decide how hot, cold, wet, or windy it might be!

Date:

Astronomy

Aug. 12, 2014 Rise Set
Actual Time 5:55 AM EDT 7:55 PM EDT
Civil Twilight 5:25 AM EDT 8:25 PM EDT
Nautical Twilight 4:48 AM EDT 9:02 PM EDT
Astronomical Twilight 4:07 AM EDT 9:42 PM EDT
Moon 8:57 PM EDT (8/12) 8:12 AM EDT (8/12)
Length of Visible Light 15h 00m
Length of Day
13h 59m
Waning Gibbous, 95% of the Moon is Illuminated
Aug 12
Waning Gibbous
Aug 17
Last Quarter
Aug 25
New
Sep 2
First Quarter
Sep 8
Full

Hourly Weather History & Observations

Time (EDT) Temp. Heat Index Dew Point Humidity Pressure Visibility Wind Dir Wind Speed Gust Speed Precip Events Conditions
12:51 AM 68.0 °F - 62.1 °F 81% 30.12 in 10.0 mi South 5.8 mph - N/A   Mostly Cloudy
1:51 AM 66.9 °F - 62.1 °F 84% 30.11 in 10.0 mi SE 3.5 mph - N/A   Overcast
2:51 AM 64.0 °F - 60.1 °F 87% 30.10 in 10.0 mi Calm Calm - N/A   Overcast
3:51 AM 63.0 °F - 60.1 °F 90% 30.09 in 10.0 mi Calm Calm - N/A   Overcast
4:51 AM 62.1 °F - 59.0 °F 90% 30.09 in 10.0 mi Calm Calm - N/A   Mostly Cloudy
5:51 AM 60.1 °F - 57.9 °F 93% 30.08 in 10.0 mi Calm Calm - N/A   Mostly Cloudy
6:51 AM 64.0 °F - 61.0 °F 90% 30.09 in 10.0 mi Calm Calm - N/A   Overcast
7:51 AM 66.9 °F - 63.0 °F 87% 30.09 in 10.0 mi Calm Calm - N/A   Overcast
8:32 AM 69.1 °F - 64.0 °F 84% 30.10 in 10.0 mi SSE 5.8 mph - N/A   Overcast
8:51 AM 70.0 °F - 64.0 °F 81% 30.10 in 10.0 mi South 5.8 mph - N/A   Overcast
9:51 AM 73.0 °F - 64.0 °F 73% 30.09 in 10.0 mi South 10.4 mph - N/A   Overcast
10:14 AM 75.0 °F - 62.1 °F 64% 30.08 in 10.0 mi South 11.5 mph - N/A   Mostly Cloudy
10:51 AM 75.2 °F - 62.6 °F 65% 30.08 in 10.0 mi SSE 10.4 mph - N/A   Overcast
11:51 AM 77.0 °F - 61.0 °F 58% 30.07 in 10.0 mi South 12.7 mph - N/A   Overcast
1:51 PM 82.9 °F 82.4 °F 57.0 °F 41% 30.05 in 10.0 mi SSE 16.1 mph 21.9 mph N/A   Mostly Cloudy
2:51 PM 80.1 °F 80.2 °F 55.9 °F 43% 30.03 in 10.0 mi SSE 13.8 mph - N/A   Overcast
3:51 PM 79.0 °F - 57.9 °F 48% 30.03 in 10.0 mi South 13.8 mph - N/A   Overcast
4:51 PM 78.1 °F - 59.0 °F 52% 30.01 in 10.0 mi SE 11.5 mph 19.6 mph N/A   Overcast
5:51 PM 77.0 °F - 63.0 °F 62% 30.00 in 10.0 mi SE 15.0 mph - N/A   Overcast
6:51 PM 75.9 °F - 64.0 °F 67% 29.99 in 10.0 mi SE 17.3 mph - N/A   Overcast
7:51 PM 75.0 °F - 64.0 °F 69% 29.98 in 10.0 mi SSE 15.0 mph - N/A   Mostly Cloudy
8:41 PM 73.9 °F - 64.9 °F 73% 29.98 in 10.0 mi SE 10.4 mph - N/A   Overcast
8:51 PM 73.9 °F - 64.9 °F 73% 29.98 in 10.0 mi SE 10.4 mph - N/A   Overcast
9:40 PM 73.9 °F - 64.9 °F 73% 29.99 in 10.0 mi SE 9.2 mph - N/A   Overcast
9:51 PM 73.9 °F - 66.0 °F 76% 29.98 in 10.0 mi SE 9.2 mph - N/A   Overcast
10:51 PM 73.9 °F - 66.0 °F 76% 29.97 in 10.0 mi SE 9.2 mph - N/A   Overcast
11:51 PM 73.0 °F - 66.0 °F 79% 29.95 in 10.0 mi SE 10.4 mph - N/A   Overcast